FREGAT DEB, 45851

Orbit data source: Space-Track

FREGAT DEB, 45851 is space debris in LEO originally from a launch on Mon, 18 Jul 2011 UTC launched from the Tyuratam Missile And Space Complex (TTMTR). Debris objects in space refer to the collection of defunct objects orbiting the Earth. Examples of debris include non-operational satellites, rocket bodies, and fragments generated from explosions, collisions, or faulty payload assembly.

Loading next visibility...
Identifier
45851, 2011-037CM
Orbit
LEO
Country
Flag of CISCIS
Related business
Manufacturer
Lavochkin
Mission
Spacecraft
Bus & Motor
Unknown
Mass
Unknown
Launch date (UTC)
2011-07-18 (15 years ago)
Launch vehicle
Unknown
Launch site
Tyuratam Missile And Space Complex (TTMTR)
Object type
Payload
Rocket body
Debris
Shape & HBR
Unknown shape, 0.1 m
Radar Cross Section
Medium (>0.1 m² and <1 m²)

Expand to show TLE details & history
Last TLE update: 2 weeks ago

TLE from 2 weeks ago
0 FREGAT DEB
1 45851U 11037CM  26161.59712339  .00001655  00000-0  34045-2 0  9995
2 45851  51.7179 128.0881 1730655  82.9577 296.3973 10.89215703236734
Epoch: 2026-06-10T14:19Z
TLE epoch observation values (Epoch: 2026-06-10T14:19:51.460Z)
Latitude
-0.00006°
Longitude
14.17065°
Altitude
1,786.286 km
Speed
7.163 km/s
True Right ascension
08h 32m 21s
True Declination
0° 00' 00"
Sunlit
Object was in daylight at epoch
Visualization orbit readout
Latitude
Unknown
Longitude
Unknown
Altitude
Unknown
Speed
Unknown
Apparent Right ascension
Unknown
Apparent Declination
Unknown
Sunlit
N/A
Visualization observer readout
Local Sidereal Time
21:41:03
Azimuth
Unknown
Elevation
Unknown
Doppler factor
Unknown
Orbital elements
Apogee altitude
3,706.702 km
Perigee altitude
731.015 km
Semi-major axis
8,596.995 km
Eccentricity
0.17307
Inclination
51.7179°
RAAN
128.0881°
Arg. of periapsis
82.9577°
True anomaly
277.12592°
Mean anomaly
296.3973°
Eccentric anomaly
286.91012°
Mean motion
2.72285 °/min
Orbital period
132.21 mins
BSTAR
0.0034045
Loading maneuver chart data...
Computing Atmospheric mass density...
Loading historical data...
Loading historical data...
Loading historical data...
Loading historical data...
Loading historical data...
Loading historical data...
Loading historical data...

Documentation

Showing up to 5 results
|